Flag for Israel Weather past 2 weeks in Tel Aviv, Israel

Now
68 °F

Sunny.


Feels Like: 68 °F
Forecast: 59 / 76 °F
Wind: 14 mph from Northwest

Location: Ben Gurion International Airport

Current Time: Mar 5, 2015 at 4:43:55 PM

Latest Report: Mar 5, 2015 at 4:20 PM


Visibility: 10 mi

Pressure: 30.09 "Hg

Humidity: 53%

Dew point: 50 °F

Location of Tel AvivLocation

Historic Weather in Tel Aviv — Graph

°F

Tel Aviv temperature yesterday

Maximum temperature yesterday: 64 °F (at 11:20 AM)
Minimum temperature yesterday: 55 °F (at 12:20 AM)
Average temperature yesterday: 59 °F

Past Weeks' High & Low Weather Summary

 TemperatureHumidityPressure
High86 °F (Feb 27, 1:50 PM)94% (Feb 19, 12:50 PM)30.21 "Hg (Feb 19, 12:50 PM)
Low41 °F (Feb 19, 11:20 PM)19% (Feb 27, 11:50 AM)29.71 "Hg (Feb 20, 4:50 AM)
Average58 °F67%30.03 "Hg
* Reported Feb 18 3:20 PM — Mar 5 3:20 PM, Tel Aviv, Weather by CustomWeather, © 2015

Note: Actual official high and low records may vary slightly from our data, if they occured in-between our weather recording intervals... More about our weather records

Advertising

Tel Aviv weather history for previous 24 hours

 ConditionsComfort  
Time TempWeatherWind HumidityBarometerVisibility
3:20 PM
Thu, Mar 5
68 °FSunny.15 mph56%30.09 "Hg10 mi
2:50 PM68 °FPassing clouds.14 mph56%30.09 "HgN/A
2:20 PM70 °FPassing clouds.14 mph53%30.09 "HgN/A
1:50 PM70 °FPassing clouds.12 mph50%30.09 "HgN/A
1:20 PM70 °FPassing clouds.12 mph50%30.09 "HgN/A
12:50 PM70 °FPassing clouds.6 mph43%30.12 "HgN/A
12:20 PM68 °FPassing clouds.8 mph46%30.12 "HgN/A
11:50 AM66 °FPassing clouds.9 mph49%30.12 "HgN/A
11:20 AM66 °FPassing clouds.9 mph52%30.12 "HgN/A
10:50 AM64 °FPassing clouds.12 mph56%30.15 "HgN/A
10:20 AM64 °FPassing clouds.9 mph56%30.15 "HgN/A
9:50 AM64 °FPassing clouds.6 mph56%30.15 "HgN/A
9:20 AM64 °FPassing clouds.3 mph64%30.15 "HgN/A
8:50 AM64 °FPassing clouds.1 mph64%30.15 "HgN/A
8:20 AM61 °FSunny.1 mph68%30.15 "Hg10 mi
7:50 AM57 °FSunny.3 mph77%30.15 "Hg10 mi
7:20 AM54 °FSunny.3 mph82%30.15 "Hg10 mi
6:50 AM52 °FPassing clouds.5 mph88%30.15 "HgN/A
6:20 AM52 °FSunny.2 mph88%30.12 "Hg10 mi
5:20 AM52 °FPassing clouds.3 mph88%30.12 "HgN/A
4:50 AM50 °FPassing clouds.2 mph94%30.12 "HgN/A
3:50 AM52 °FPassing clouds.1 mph88%30.09 "HgN/A
3:20 AM52 °FClear.1 mph88%30.09 "Hg10 mi
2:50 AM52 °FClear.2 mph88%30.09 "Hg10 mi
2:20 AM54 °FClear.5 mph88%30.09 "Hg10 mi
1:50 AM54 °FClear.3 mph88%30.09 "Hg10 mi
1:20 AM54 °FPassing clouds.2 mph88%30.09 "HgN/A
12:50 AM55 °FPassing clouds.1 mph88%30.12 "HgN/A
12:20 AM55 °FPassing clouds.1 mph88%30.12 "HgN/A
11:20 PM
Wed, Mar 4
57 °FPassing clouds.3 mph82%30.12 "HgN/A
10:50 PM57 °FPassing clouds.3 mph82%30.12 "HgN/A
10:20 PM57 °FPassing clouds.6 mph82%30.12 "HgN/A
9:50 PM57 °FPassing clouds.5 mph82%30.12 "HgN/A
9:20 PM59 °FPassing clouds.5 mph82%30.12 "HgN/A
8:50 PM59 °FLight rain. Passing clouds.5 mph82%30.12 "HgN/A
8:20 PM59 °FLight rain. Passing clouds.5 mph82%30.12 "HgN/A
7:50 PM59 °FPassing clouds.3 mph82%30.12 "HgN/A
7:20 PM59 °FPassing clouds.3 mph82%30.12 "HgN/A
6:50 PM61 °FPassing clouds.3 mph72%30.12 "HgN/A
6:20 PM61 °FPassing clouds.5 mph72%30.12 "HgN/A
5:50 PM61 °FPassing clouds.6 mph72%30.12 "HgN/A
5:20 PM63 °FScattered clouds.9 mph68%30.09 "HgN/A
4:50 PM63 °FPassing clouds.12 mph68%30.09 "HgN/A
4:20 PM64 °FScattered clouds.12 mph64%30.09 "HgN/A
Weather by CustomWeather, © 2015

See weather overviewHow to use our weather pages